COSMOS 2476 (744)

Last updated on Nov. 12, 2019, 4:19 a.m. UTC

1 37867U 11064A   19315.08982200  .00000108  00000-0  00000+0 0  9999
2 37867  64.5043 154.5824 0017517 234.6716 307.5563  2.13101923 62452
UTC
Height (km)
Latitude
Longitude
Inclination
Orbital Period
UTC large
Height (km)
Speed (km/s)
/
Latitude / Longitude
Inclination (degrees)
Orbital Period (minutes)
Azimuth
Elevation
Range (km)
Doppler Factor
iOS Compass Heading
iOS Angle

Next 30 passes for location: Hong Kong

Rise time Rise Azimuth (degrees) Set time Set Azimuth (degrees) Duration Max altitude (degrees)

No matching passes for this satellites